Weather History for Morristown, NJ

Change the Weather History Date:

Monday, December 3, 2012

  Actual Average Record
Temperature  
Mean Temperature 48 °F -  
Max Temperature 62 °F 47 °F 69 °F (1998)
Min Temperature 35 °F 26 °F 6 °F (1938)
Degree Days  
Heating Degree Days 16    
Moisture  
Dew Point 42 °F    
Average Humidity 93    
Maximum Humidity 100    
Minimum Humidity 55    
Precipitation  
Precipitation 0.00 in - - ()
Sea Level Pressure  
Sea Level Pressure 30.19 in    
Wind  
Wind Speed 1 mph (West)    
Max Wind Speed 10 mph    
Max Gust Speed 14 mph    
Visibility 4 miles    
Events Fog    
Averages and records for this station are not official NWS values.
T = Trace of Precipitation, MM = Missing Value Source: NWS Daily Summary

Daily Weather History Graph

Daily Weather History Graph

Search for Another Location

Airport:

Trip Planner

Search our weather history database for the weather conditions in past years. The results will help you decide how hot, cold, wet, or windy it might be!

Date:

Astronomy

Dec. 03, 2012 Rise Set
Actual Time 7:05 AM EST 4:30 PM EST
Civil Twilight 6:34 AM EST 5:00 PM EST
Nautical Twilight 6:00 AM EST 5:34 PM EST
Astronomical Twilight 5:27 AM EST 6:08 PM EST
Moon 9:15 PM EST (12/3) 10:26 AM EST (12/3)
Length of Visible Light 10h 26m
Length of Day
9h 25m
Waning Gibbous, 78% of the Moon is Illuminated
Dec 3
Waning Gibbous
Dec 6
Last Quarter
Dec 13
New
Dec 20
First Quarter
Dec 28
Full

Hourly Weather History & Observations

Time (EST) Temp. Windchill Dew Point Humidity Pressure Visibility Wind Dir Wind Speed Gust Speed Precip Events Conditions
12:15 AM 46.4 °F - 46.4 °F 100% 30.11 in 3.0 mi Calm Calm - N/A   Overcast
12:35 AM 46.4 °F - 46.4 °F 100% 30.11 in 3.0 mi Calm Calm - N/A   Overcast
12:55 AM 46.4 °F - 46.4 °F 100% 30.10 in 3.0 mi Calm Calm - N/A   Overcast
1:15 AM 46.4 °F - 46.4 °F 100% 30.11 in 3.0 mi Calm Calm - N/A   Overcast
1:35 AM 46.4 °F - 46.4 °F 100% 30.11 in 4.0 mi Calm Calm - N/A   Overcast
1:55 AM 46.4 °F 45.2 °F 46.4 °F 100% 30.12 in 4.0 mi South 3.5 mph - N/A   Overcast
2:15 AM 46.4 °F - 46.4 °F 100% 30.12 in 4.0 mi Calm Calm - N/A   Overcast
2:35 AM 46.4 °F 45.2 °F 46.4 °F 100% 30.12 in 4.0 mi SW 3.5 mph - N/A   Overcast
2:55 AM 46.4 °F - 46.4 °F 100% 30.12 in 4.0 mi Calm Calm - N/A   Overcast
3:15 AM 46.4 °F 45.2 °F 46.4 °F 100% 30.13 in 5.0 mi WSW 3.5 mph - N/A   Overcast
3:35 AM 46.4 °F 44.3 °F 46.4 °F 100% 30.12 in 5.0 mi WSW 4.6 mph - N/A   Overcast
3:55 AM 46.4 °F 44.3 °F 46.4 °F 100% 30.13 in 5.0 mi WSW 4.6 mph - N/A   Overcast
4:15 AM 46.4 °F - 46.4 °F 100% 30.13 in 4.0 mi Calm Calm - N/A   Overcast
4:35 AM 44.6 °F - 44.6 °F 100% 30.13 in 1.5 mi Calm Calm - N/A   Mostly Cloudy
4:55 AM 42.8 °F - 42.8 °F 100% 30.14 in 0.2 mi Calm Calm - N/A Fog Fog
5:15 AM 39.2 °F - 39.2 °F 100% 30.14 in 0.2 mi Calm Calm - N/A Fog Fog
5:35 AM 37.4 °F - 37.4 °F 100% 30.15 in 0.2 mi Calm Calm - N/A Fog Fog
6:45 AM 35.6 °F - 33.8 °F 93% 30.18 in 0.1 mi Calm Calm - N/A Fog Fog
7:45 AM 35.6 °F - 35.6 °F 100% 30.20 in 0.1 mi Calm Calm - N/A Fog Fog
8:25 AM 39.2 °F - 39.2 °F 100% 30.20 in 0.2 mi Calm Calm - N/A Fog Fog
8:35 AM 39.2 °F - 39.2 °F 100% 30.20 in 2.0 mi Calm Calm - N/A Fog Fog
8:45 AM 39.2 °F - 39.2 °F 100% 30.20 in 2.5 mi Calm Calm - N/A   Haze
9:15 AM 39.2 °F - 39.2 °F 100% 30.21 in 3.0 mi Calm Calm - N/A   Haze
9:45 AM 55.4 °F - 50.0 °F 82% 30.22 in 5.0 mi WSW 4.6 mph - N/A   Haze
10:45 AM 59.0 °F - 50.0 °F 72% 30.21 in 6.0 mi Calm Calm - N/A   Haze
11:45 AM 60.8 °F - 46.4 °F 59% 30.20 in 8.0 mi WNW 9.2 mph 13.8 mph N/A   Scattered Clouds
1:45 PM 62.6 °F - 46.4 °F 55% 30.17 in 10.0 mi WNW 10.4 mph - N/A   Scattered Clouds
2:45 PM 62.6 °F - 46.4 °F 55% 30.19 in 10.0 mi NW 8.1 mph - N/A   Scattered Clouds
3:45 PM 60.8 °F - 46.4 °F 59% 30.20 in 10.0 mi NW 5.8 mph - N/A   Scattered Clouds
4:45 PM 55.4 °F - 44.6 °F 67% 30.21 in 10.0 mi North 3.5 mph - N/A   Clear
5:45 PM 50.0 °F - 44.6 °F 82% 30.23 in 7.0 mi Calm Calm - N/A   Mostly Cloudy
6:45 PM 42.8 °F - 41.0 °F 93% 30.25 in 10.0 mi Calm Calm - N/A   Clear
7:45 PM 41.0 °F 39.0 °F 39.2 °F 93% 30.26 in 10.0 mi WNW 3.5 mph - N/A   Clear
8:45 PM 41.0 °F - 39.2 °F 93% 30.27 in 7.0 mi Calm Calm - N/A   Mostly Cloudy
9:45 PM 41.0 °F - 39.2 °F 93% 30.26 in 7.0 mi Calm Calm - N/A   Mostly Cloudy
9:55 PM 37.4 °F - 37.4 °F 100% 30.26 in 3.0 mi Calm Calm - N/A   Mostly Cloudy
10:15 PM 35.6 °F - 35.6 °F 100% 30.26 in 2.5 mi Calm Calm - N/A   Mostly Cloudy
10:35 PM 37.4 °F - 37.4 °F 100% 30.26 in 1.2 mi Calm Calm - N/A   Mostly Cloudy
10:55 PM 35.6 °F - 35.6 °F 100% 30.26 in 0.5 mi Calm Calm - N/A Fog Fog
11:15 PM 35.6 °F - 35.6 °F 100% 30.27 in 4.0 mi Calm Calm - N/A   Scattered Clouds
11:35 PM 35.6 °F - 35.6 °F 100% 30.26 in 1.0 mi Calm Calm - N/A   Mostly Cloudy
11:55 PM 37.4 °F - 37.4 °F 100% 30.27 in 1.0 mi Calm Calm - N/A   Overcast